Waarnemingen

Advertentie
Mijn weer
Europlatform, Nederland (6321): temperatuur & dauwpunt: 20.05.2018 23:00:00 - 26.05.2018 23:00:00 (CEST)Europlatform, Nederland (6321): water temperatuur: 20.05.2018 23:00:00 - 26.05.2018 23:00:00 (CEST)Europlatform, Nederland (6321): windsnelheid & windstoten: 20.05.2018 23:00:00 - 26.05.2018 23:00:00 (CEST)Europlatform, Nederland (6321): windrichting: 20.05.2018 23:00:00 - 26.05.2018 23:00:00 (CEST)Europlatform, Nederland (6321): luchtdruk: 20.05.2018 23:00:00 - 26.05.2018 23:00:00 (CEST)Europlatform, Nederland (6321): zicht: 20.05.2018 23:00:00 - 26.05.2018 23:00:00 (CEST)
Datum & Tijd tt [°C] td [°C] tw [°C] ff [km/u] ff [kn] fx [km/u] fx [kn] dd ppp [hPa] vv [km]
26.05.2018 23:00:00 16,6 12,8 11,2 40 21 47 25 NO 1018,8 2,2
26.05.2018 22:00:00 16,2 13,4 11,2 42 23 43 23 NO 1018,9 21
26.05.2018 21:00:00 16,1 13,6 11,2 42 23 43 23 NNO 1018,6 20
26.05.2018 20:00:00 15,8 13,4 11,1 41 22 43 23 NNO 1018,6 18
26.05.2018 19:00:00 15,6 12,9 11,1 39 21 40 21 NNO 1018,8 17
26.05.2018 18:00:00 15,7 12,7 11,1 39 21 40 21 NNO 1019,1 17
26.05.2018 17:00:00 15,3 12,5 11,1 35 19 36 19 NNO 1019,4 14
26.05.2018 16:00:00 15,3 12,6 11,1 31 17 32 18 NNO 1019,8 14
26.05.2018 15:00:00 14,5 12,4 11,1 28 15 29 16 NNO 1020,1 14
26.05.2018 14:00:00 14,3 12,4 11,1 31 17 29 16 NNO 1020,1 14
26.05.2018 13:00:00 13,9 12,1 11,1 29 16 29 16 NNO 1020,1 16
26.05.2018 12:00:00 14,0 12,2 11,1 29 16 29 16 NNO 1020,2 19
26.05.2018 11:00:00 14,0 12,3 11,1 29 16 29 16 NNO 1020,2 16
26.05.2018 10:00:00 14,2 13,0 11,1 29 16 32 18 NO 1019,7 8
26.05.2018 09:00:00 15,7 14,0 11,1 28 15 29 16 ONO 1019,5 10
26.05.2018 08:00:00 15,3 13,9 11,1 29 16 32 18 ONO 1019,4 8
26.05.2018 07:00:00 15,5 14,1 11,1 31 17 32 18 ONO 1019,1 8
26.05.2018 06:00:00 15,4 13,9 11,1 31 17 32 18 NO 1018,7 9
26.05.2018 05:00:00 15,1 13,4 11,1 29 16 29 16 NO 1018,6 11
26.05.2018 04:00:00 14,4 12,9 11,0 28 15 25 14 NO 1018,8 8
26.05.2018 03:00:00 14,1 12,7 11,0 26 14 25 14 NO 1019,1 7
26.05.2018 02:00:00 13,2 12,3 11,1 18 10 18 10 N 1019,0 9
26.05.2018 01:00:00 11,9 11,7 11,1 18 10 22 12 NNW 1019,3 9
26.05.2018 00:00:00 11,6 11,5 11,1 16 9 18 10 NW 1019,5 16
25.05.2018 23:00:00 11,3 11,3 11,1 13 7 14 8 NW 1019,7 16
25.05.2018 22:00:00 10,7 10,7 11,1 13 7 14 8 NNW 1019,4 0,2
25.05.2018 21:00:00 11,3 11,3 11,1 9 5 11 6 NNW 1019,1 0,1
25.05.2018 20:00:00 11,8 11,7 11,1 13 7 14 8 NNW 1019,0 0,1
25.05.2018 19:00:00 12,3 12,2 11,0 11 6 11 6 NNW 1018,7 0,1
25.05.2018 18:00:00 12,5 12,4 11,0 9 5 14 8 W 1019,0 0,1
25.05.2018 17:00:00 12,7 12,7 11,0 13 7 14 8 WZW 1019,2 0,2
25.05.2018 16:00:00 12,4 12,4 11,0 13 7 14 8 ZW 1019,3 0,2
25.05.2018 15:00:00 12,9 12,9 11,0 2 1 7 4 - 1019,1 0,3
25.05.2018 14:00:00 12,8 12,8 11,0 9 5 14 8 ZZW 1018,9 0,4
25.05.2018 13:00:00 12,6 12,6 11,0 15 8 22 12 ZZW 1018,6 1,0
25.05.2018 12:00:00 12,4 12,4 11,0 18 10 18 10 ZZW 1018,5 0,2
25.05.2018 11:00:00 12,7 12,6 11,0 16 9 18 10 ZZO 1018,3 0,2
25.05.2018 10:00:00 13,1 13,1 11,0 11 6 22 12 ZZO 1018,0 0,1
25.05.2018 09:00:00 13,2 13,1 11,0 18 10 22 12 ZZO 1017,4 0,1
25.05.2018 08:00:00 13,9 13,6 11,0 18 10 18 10 ZO 1016,9 1,6
25.05.2018 07:00:00 14,7 14,7 11,0 16 9 18 10 OZO 1016,6 1,0
25.05.2018 06:00:00 14,1 13,9 11,0 13 7 14 8 O 1016,4 1,1
25.05.2018 05:00:00 14,1 14,0 11,0 9 5 11 6 O 1016,4 1,8
25.05.2018 04:00:00 13,4 13,2 10,9 11 6 14 8 NNO 1016,3 0,3
25.05.2018 03:00:00 15,6 14,6 11,0 9 5 14 8 NO 1016,1 17
25.05.2018 02:00:00 16,1 15,1 11,0 9 5 11 6 NNO 1016,6 22
25.05.2018 01:00:00 15,5 15,2 10,9 8 4 25 14 Z 1016,9 16
25.05.2018 00:00:00 14,6 12,2 11,0 4 2 14 8 - 1017,4 11
24.05.2018 23:00:00 15,9 12,4 11,0 7 4 29 16 O 1017,0 20
24.05.2018 22:00:00 14,7 11,7 11,0 29 16 32 18 NNO 1016,7 26
24.05.2018 21:00:00 14,3 11,9 11,0 28 15 29 16 NNO 1016,7 22
24.05.2018 20:00:00 13,2 11,9 11,0 34 18 36 19 N 1016,8 16
24.05.2018 19:00:00 13,7 12,3 11,0 35 19 40 21 N 1016,7 16
24.05.2018 18:00:00 14,1 12,3 11,0 28 15 32 18 NNO 1017,2 15
24.05.2018 17:00:00 14,5 12,2 11,0 29 16 29 16 NNO 1017,6 20
24.05.2018 16:00:00 13,6 11,6 10,9 25 14 29 16 NNO 1018,4 18
24.05.2018 15:00:00 13,6 11,5 10,9 28 15 29 16 NNO 1018,7 19
24.05.2018 14:00:00 13,6 11,4 10,9 28 15 29 16 NO 1019,3 22
24.05.2018 13:00:00 13,9 11,4 10,9 29 16 32 18 NO 1019,2 20
24.05.2018 12:00:00 13,5 11,4 10,9 24 13 29 16 NNO 1019,8 29
24.05.2018 11:00:00 13,6 11,2 10,9 29 16 32 18 NO 1020,0 30
24.05.2018 10:00:00 13,8 11,2 10,9 35 19 36 19 NO 1020,1 36
24.05.2018 09:00:00 13,9 11,0 10,9 29 16 36 19 NO 1020,4 41
24.05.2018 08:00:00 13,9 11,0 10,9 37 20 36 19 NO 1020,2 46
24.05.2018 07:00:00 14,0 11,2 10,9 31 17 36 19 NO 1020,3 41
24.05.2018 06:00:00 14,2 11,6 11,0 37 20 36 19 NO 1020,3 23
24.05.2018 05:00:00 14,1 11,4 10,9 31 17 40 21 NO 1020,4 25
24.05.2018 04:00:00 14,1 11,3 10,9 39 21 40 21 NO 1020,5 26
24.05.2018 03:00:00 13,9 11,2 10,9 35 19 36 19 NNO 1020,8 24
24.05.2018 02:00:00 13,9 11,1 10,8 35 19 40 21 NNO 1021,0 24
24.05.2018 01:00:00 14,4 11,2 10,8 37 20 40 21 NO 1021,1 25
24.05.2018 00:00:00 14,9 11,3 10,8 39 21 43 23 NO 1021,1 24
23.05.2018 23:00:00 15,0 11,4 10,8 41 22 43 23 NO 1020,9 21
23.05.2018 22:00:00 14,6 11,6 10,8 41 22 43 23 NNO 1020,6 20
23.05.2018 21:00:00 14,3 11,5 10,8 39 21 40 21 NNO 1020,4 20
23.05.2018 20:00:00 13,6 11,2 10,8 39 21 40 21 NNO 1020,2 19
23.05.2018 19:00:00 13,1 11,4 10,7 35 19 36 19 N 1020,3 18
23.05.2018 18:00:00 13,3 11,5 10,8 37 20 36 19 N 1020,3 19
23.05.2018 17:00:00 13,0 11,3 10,7 34 18 36 19 N 1020,5 21
23.05.2018 16:00:00 12,9 11,2 10,7 35 19 36 19 N 1020,7 22
23.05.2018 15:00:00 13,3 11,5 10,8 8 4 22 12 NO 1021,3 21
23.05.2018 14:00:00 12,8 11,5 10,7 24 13 29 16 N 1021,6 20
23.05.2018 13:00:00 12,5 11,3 10,8 22 12 29 16 N 1021,4 19
23.05.2018 12:00:00 12,3 11,4 10,7 24 13 29 16 N 1021,3 19
23.05.2018 11:00:00 12,3 11,3 10,8 22 12 25 14 N 1021,1 18
23.05.2018 10:00:00 12,3 11,2 10,8 22 12 25 14 N 1021,0 18
23.05.2018 09:00:00 12,2 11,0 10,7 24 13 29 16 N 1020,3 18
23.05.2018 08:00:00 12,1 10,8 10,8 25 14 32 18 N 1019,9 18
23.05.2018 07:00:00 12,0 10,7 10,8 34 18 36 19 N 1019,1 18
23.05.2018 06:00:00 12,2 10,7 10,8 31 17 40 21 N 1018,5 18
23.05.2018 05:00:00 12,3 10,5 10,8 35 19 43 23 N 1018,3 20
23.05.2018 04:00:00 12,3 10,4 10,8 35 19 40 21 N 1017,9 21
23.05.2018 03:00:00 12,3 10,3 10,8 32 18 40 21 NNW 1017,8 22
23.05.2018 02:00:00 12,4 10,3 10,8 34 18 36 19 NNW 1017,6 23
23.05.2018 01:00:00 13,0 9,9 10,7 29 16 36 19 NNW 1017,7 29
23.05.2018 00:00:00 13,5 9,7 10,7 34 18 32 18 N 1017,4 30
22.05.2018 23:00:00 13,0 10,4 10,7 34 18 32 18 N 1017,2 28
22.05.2018 22:00:00 12,7 10,5 10,8 34 18 36 19 N 1016,6 28
22.05.2018 21:00:00 13,1 10,3 10,7 34 18 36 19 N 1016,1 28
22.05.2018 20:00:00 13,6 10,2 10,7 34 18 36 19 N 1015,6 29
22.05.2018 19:00:00 12,8 11,0 10,7 29 16 32 18 N 1015,6 23
22.05.2018 18:00:00 12,7 11,1 10,7 31 17 32 18 NNW 1015,2 19
22.05.2018 17:00:00 12,9 11,2 10,7 29 16 29 16 N 1014,7 14
22.05.2018 16:00:00 13,0 11,3 - 29 16 29 16 N 1014,7 13
22.05.2018 15:00:00 13,3 11,2 10,6 26 14 29 16 N 1014,6 16
22.05.2018 14:00:00 12,6 11,3 10,7 22 12 22 12 N 1014,5 13
22.05.2018 13:00:00 12,6 11,0 - 21 11 22 12 NNW 1014,1 13
22.05.2018 12:00:00 13,4 11,2 - 16 9 18 10 WNW 1013,9 15
22.05.2018 11:00:00 15,5 11,1 10,6 2 1 11 6 - 1013,7 25
22.05.2018 10:00:00 13,3 10,9 10,6 4 2 18 10 - 1013,8 21
22.05.2018 09:00:00 12,8 10,9 10,5 29 16 32 18 NNW 1013,4 23
22.05.2018 08:00:00 16,4 10,4 10,5 29 16 29 16 NW 1012,4 50
22.05.2018 07:00:00 16,0 11,3 10,6 21 11 25 14 NW 1012,4 50
22.05.2018 06:00:00 14,9 11,8 10,6 13 7 18 10 NW 1012,8 10
22.05.2018 05:00:00 14,9 12,2 10,6 24 13 25 14 N 1012,7 14
22.05.2018 04:00:00 15,5 11,4 10,6 9 5 18 10 NO 1012,8 14
22.05.2018 03:00:00 17,7 10,5 10,5 16 9 18 10 NW 1011,9 50
22.05.2018 02:00:00 17,0 11,3 10,5 21 11 25 14 NW 1012,4 50
22.05.2018 01:00:00 17,1 11,5 10,5 13 7 22 12 NO 1013,3 46
22.05.2018 00:00:00 19,1 11,4 10,5 21 11 29 16 Z 1012,8 47
21.05.2018 23:00:00 16,9 9,9 10,5 21 11 36 19 OZO 1013,3 46
21.05.2018 22:00:00 13,8 10,7 10,5 31 17 32 18 NNO 1012,5 28
21.05.2018 21:00:00 14,1 10,7 10,5 34 18 36 19 N 1012,4 27
21.05.2018 20:00:00 13,8 10,4 10,4 35 19 36 19 N 1012,5 27
21.05.2018 19:00:00 14,5 9,9 10,5 37 20 36 19 N 1012,7 46
21.05.2018 18:00:00 15,1 9,6 10,5 37 20 36 19 NNO 1013,1 44
21.05.2018 17:00:00 13,9 10,4 10,5 34 18 32 18 NNO 1013,7 28
21.05.2018 16:00:00 13,2 10,4 10,5 34 18 32 18 N 1014,2 26
21.05.2018 15:00:00 13,7 10,2 10,4 31 17 29 16 N 1014,8 31
21.05.2018 14:00:00 13,5 9,7 10,5 28 15 29 16 NNO 1015,4 43
21.05.2018 13:00:00 13,4 9,6 10,4 26 14 25 14 NNO 1015,9 40
21.05.2018 12:00:00 13,0 9,8 10,5 22 12 22 12 NO 1016,3 42
21.05.2018 11:00:00 13,1 9,5 10,5 24 13 25 14 NO 1016,7 49
21.05.2018 10:00:00 13,0 9,3 - 24 13 25 14 NO 1016,7 48
21.05.2018 09:00:00 13,0 9,6 10,4 22 12 25 14 NO 1016,9 46
21.05.2018 08:00:00 13,2 9,2 10,5 28 15 29 16 NO 1017,2 48
21.05.2018 07:00:00 13,3 9,5 10,5 26 14 29 16 ONO 1017,4 42
21.05.2018 06:00:00 13,2 9,8 10,5 28 15 29 16 NO 1017,6 23
21.05.2018 05:00:00 13,6 11,0 10,5 24 13 29 16 NO 1018,0 13
21.05.2018 04:00:00 12,6 11,1 10,5 21 11 22 12 NNO 1018,2 10
21.05.2018 03:00:00 12,6 10,8 - 18 10 22 12 NNO 1018,7 12
21.05.2018 02:00:00 12,1 10,5 10,5 21 11 22 12 NNO 1019,1 13
21.05.2018 01:00:00 12,4 10,5 10,5 24 13 25 14 NNO 1019,9 13
21.05.2018 00:00:00 13,2 10,7 10,5 16 9 36 19 NO 1020,4 12
20.05.2018 23:00:00 12,4 10,6 10,5 34 18 36 19 N 1020,1 11

tt = temperatuur
td = dauwpunt
tw = water temperatuur
ff = windsnelheid
fx = windstoten
dd = windrichting
ppp = luchtdruk
vv = zicht

Weerstations in de omgeving